Regional Weather Roundup
Issued by NWS Cleveland, OH

Home | Current Version | Previous Version | Text Only | Print | Product List | Glossary On
Versions: 1 2 3 4 5 6 7 8 9 10 11 12 13 14 15 16 17 18 19 20 21 22 23 24 25 26 27 28 29 30 31 32 33 34 35 36 37 38 39 40 41 42 43 44 45 46 47 48 49 50
000
ASUS41 KCLE 210602
RWRCLE
OHIO REGIONAL WEATHER ROUNDUP
NATIONAL WEATHER SERVICE CLEVELAND, OH
200 AM EDT TUE OCT 21 2014

NOTE: "FAIR" INDICATES FEW OR NO CLOUDS BELOW 12,000 FEET WITH NO
SIGNIFICANT WEATHER AND/OR OBSTRUCTIONS TO VISIBILITY.

OHZ001>008-015>018-024>027-034-035-043-044-210700-
   NORTHWEST OHIO

CITY           SKY/WX    TMP DP  RH WIND       PRES   REMARKS
DEFIANCE       CLOUDY    52  45  77 VRB6      29.91R
FINDLAY        CLOUDY    52  48  86 W6        29.88R
TOLEDO EXPRESS CLOUDY    50  44  80 N8        29.89R
TOLEDO EXEC    CLOUDY    51  46  83 N10       29.88S
LIMA           CLOUDY    51  48  89 W7        29.90R
$$

OHZ009>014-019>023-028>033-038-089-210700-
   NORTHEAST OHIO

CITY           SKY/WX    TMP DP  RH WIND       PRES   REMARKS
CLE-HOPKINS    LGT RAIN  52  51  97 W6        29.86S FOG
CLE-LAKEFRONT  CLOUDY    56  51  84 NW14      29.82F
CUY CO. ARPT   NOT AVBL
LORAIN-ELYRIA  LGT RAIN  52  51  97 N7        29.84F FOG
ASHTABULA      CLOUDY    51  50  96 W3        29.82F FOG
AKRON-CANTON   CLOUDY    52  49  89 W6        29.84F FOG
WOOSTER        CLOUDY    53  50  89 CALM      29.85F FOG
MANSFIELD      CLOUDY    51  50  96 W5        29.85F FOG
YOUNGSTOWN     LGT RAIN  50  49  96 SW8       29.83S FOG
$$

OHZ042-051>053-060>062-070>072-077>081-210700-
  SOUTHWEST OHIO

CITY           SKY/WX    TMP DP  RH WIND       PRES   REMARKS
CINC-COVINGTON PTCLDY    53  47  79 NW7       29.92R
CINC-LUNKEN    PTCLDY    54  49  83 NW5       29.92S
HAMILTON       MOCLDY    54  51  90 NW6       29.93R
DAYTON         LGT RAIN  53  50  89 NW9       29.92S
WRIGHT-PAT AFB MOCLDY    53  50  89 NW9       29.91R
DAYTON GENERAL CLOUDY    53  49  86 N8        29.91R
WILMINGTON     CLOUDY    53  50  89 W10       29.91R
$$

OHZ036-037-039>041-045>050-054>059-063>069-073>076-082>088-210700-
  CENTRAL AND SOUTHEAST OHIO

CITY           SKY/WX    TMP DP  RH WIND       PRES   REMARKS
COLUMBUS       PTCLDY    46  45  96 CALM      29.88S FOG
OSU AIRPORT    FOG       45  44  97 W6        29.88S VSB 1/2
BOLTON FIELD   CLEAR     48  48 100 CALM      29.89S FOG
RICKENBACK AFB NOT AVBL
NEWARK         FOG       45  43  93 SW3       29.88S VSB 1/2
MARION         MOCLDY    49  47  93 W7        29.88R FOG
LANCASTER      MOCLDY    47  45  93 CALM      29.89S FOG
ZANESVILLE     PTCLDY    48  46  93 SW3       29.87F
NEW PHILLY     MOCLDY    51  48  89 CALM      29.86F
$$


USA.gov is the U.S. government's official web portal to all federal, state and local government web resources and services.